Вернуться в каталог

STARLINK-1582

АктивенСвязьVLEO
NORAD 46043·PAYLOAD·🇺🇸 United States

Запущен Aug 7, 2020 с Cape Canaveral Space Force Station

Loading…

Ближайшие Пролёты (ближайшие 24 часа)

TLE

СвежийSource: CelesTrak SupGP

Эпоха: Sep 15, 2026, 01:21 UTC

1 46043C 20055S   26258.05673611  .00046957  00000+0  15101-2 0  2589
2 46043  53.1576 325.4471 0001097  80.3467  93.9459 15.31677451    17

Отслеживайте STARLINK-1582 в реальном времени с AllMySat

Download on the App Store